Location: Borojevi?i
(45.0486°N, 16.2297°E)
Time: 07:43:56
(UTC+00:00)

SL-24 R/B - RUBIN 2 - Pass Details

Date: 08 August 2020
Orbit: 569 x 1026 km, 64.6° (Epoch: 26 September)

Event Time Altitude Azimuth Distance (km) Brightness Sun altitude
Rises 19:41:44 0° 324° (NW) 3,780 9.3 -14.3°
Reaches altitude 10° 19:44:26 10° 325° (NW) 2,812 8.2 -14.6°
Maximum altitude 19:51:09 81° 53° (NE) 994 4.5 -15.5°
Enters shadow 19:55:07 24° 139° (SE) 1,829 5.3 -16.0°
